Fort Smith, AR

3:09 AM CDT on August 25, 2016 (GMT -0500)
Fort Smith Regional

Weather History for KFSM - July, 2014

Change the Weather History Date:

Sunday, July 27, 2014

  Actual Average Record
Temperature  
Mean Temperature 87 °F 83 °F  
Max Temperature 98 °F 94 °F 107 °F (2011)
Min Temperature 75 °F 72 °F 61 °F (1911)
Cooling Degree Days 22 18  
Month to date cooling degree days 378 466  
Year to date cooling degree days 1094 1095  
Since 1 June cooling degree days 816 851  
Growing Degree Days 36 (Base 50)    
Moisture  
Dew Point 72 °F    
Average Humidity 71    
Maximum Humidity 94    
Minimum Humidity 47    
Precipitation  
Precipitation 0.00 in 0.11 in 3.83 in (1979)
Month to date precipitation 1.72 2.89  
Year to date precipitation 20.91 26.36  
Sea Level Pressure  
Sea Level Pressure 29.96 in    
Wind  
Wind Speed 5 mph (NNW)    
Max Wind Speed 17 mph    
Max Gust Speed 21 mph    
Visibility 10 miles    
Events      
T = Trace of Precipitation, MM = Missing Value Source: NWS Daily Summary

Daily Weather History Graph

Daily Weather History Graph

Search for Another Location

Airport or City:

Trip Planner

Search our weather history database for the weather conditions in past years. The results will help you decide how hot, cold, wet, or windy it might be!

Date:

Astronomy

Jul. 27, 2014 Rise Set
Actual Time 6:22 AM CDT 8:25 PM CDT
Civil Twilight 5:54 AM CDT 8:53 PM CDT
Nautical Twilight 5:19 AM CDT 9:27 PM CDT
Astronomical Twilight 4:42 AM CDT 10:04 PM CDT
Moon 7:06 AM CDT (7/27) 8:39 PM CDT (7/27)
Length of Visible Light 14h 59m
Length of Day
14h 02m
New Moon, 1% of the Moon is Illuminated
Jul 27
New Moon
Aug 3
First Quarter
Aug 10
Full
Aug 17
Last Quarter
Aug 25
New

Hourly Weather History & Observations

Time (CDT) Temp. Heat Index Dew Point Humidity Pressure Visibility Wind Dir Wind Speed Gust Speed Precip Events Conditions
12:53 AM 81.0 °F 85.2 °F 72.0 °F 74% 29.93 in 10.0 mi Calm Calm - N/A   Clear
1:53 AM 77.0 °F - 72.0 °F 84% 29.93 in 10.0 mi Calm Calm - N/A   Clear
2:53 AM 78.1 °F - 72.0 °F 81% 29.93 in 10.0 mi Calm Calm - N/A   Clear
3:53 AM 75.9 °F - 72.0 °F 87% 29.94 in 10.0 mi NE 3.5 mph - N/A   Clear
4:53 AM 75.9 °F - 73.0 °F 91% 29.95 in 9.0 mi ENE 3.5 mph - N/A   Clear
5:53 AM 75.9 °F - 73.0 °F 91% 29.96 in 9.0 mi Calm Calm - N/A   Clear
6:53 AM 75.0 °F - 73.0 °F 94% 29.97 in 6.0 mi ENE 3.5 mph - N/A   Clear
7:53 AM 78.1 °F - 73.9 °F 87% 29.97 in 7.0 mi Calm Calm - N/A   Clear
8:53 AM 82.9 °F 89.4 °F 73.9 °F 74% 29.99 in 10.0 mi Calm Calm - N/A   Clear
9:53 AM 87.1 °F 94.5 °F 73.0 °F 63% 29.97 in 10.0 mi WSW 8.1 mph - N/A   Clear
10:53 AM 91.0 °F 100.4 °F 73.9 °F 57% 29.97 in 10.0 mi WSW 8.1 mph - N/A   Clear
11:53 AM 93.0 °F 103.2 °F 73.9 °F 54% 29.97 in 10.0 mi SW 10.4 mph - N/A   Clear
12:53 PM 93.9 °F 104.0 °F 73.9 °F 52% 29.96 in 10.0 mi West 6.9 mph - N/A   Clear
1:53 PM 95.0 °F 104.5 °F 73.0 °F 49% 29.96 in 10.0 mi WSW 4.6 mph - N/A   Clear
2:53 PM 97.0 °F 107.7 °F 73.9 °F 47% 29.95 in 10.0 mi Variable 6.9 mph - N/A   Clear
3:53 PM 96.1 °F 107.1 °F 73.9 °F 49% 29.95 in 10.0 mi WNW 11.5 mph 18.4 mph N/A   Clear
4:53 PM 95.0 °F 106.7 °F 75.0 °F 52% 29.96 in 10.0 mi North 8.1 mph - N/A   Mostly Cloudy
5:53 PM 93.9 °F 105.4 °F 75.0 °F 54% 29.96 in 10.0 mi NNW 10.4 mph - N/A   Partly Cloudy
6:53 PM 93.0 °F 103.2 °F 73.9 °F 54% 29.97 in 10.0 mi North 12.7 mph - N/A   Partly Cloudy
7:53 PM 91.0 °F 95.2 °F 68.0 °F 47% 29.97 in 10.0 mi NNE 8.1 mph - N/A   Clear
8:53 PM 88.0 °F 92.9 °F 70.0 °F 55% 29.96 in 10.0 mi Calm Calm - N/A   Clear
9:53 PM 84.9 °F 90.1 °F 71.1 °F 63% 29.99 in 10.0 mi NW 4.6 mph - N/A   Scattered Clouds
10:53 PM 84.9 °F 88.2 °F 68.0 °F 57% 30.01 in 10.0 mi NNW 10.4 mph - N/A   Clear
11:53 PM 81.0 °F 82.5 °F 64.0 °F 56% 30.02 in 10.0 mi NNE 4.6 mph - N/A   Clear